Greenville, AL

4:52 AM CST on December 14, 2017 (GMT -0600)
Greenville Municipal

Weather History for KPRN - November, 2012

Change the Weather History Date:

Sunday, November 11, 2012

  Actual Average Record
Temperature  
Mean Temperature 58 °F -  
Max Temperature 75 °F 67 °F 84 °F (1985)
Min Temperature 42 °F 44 °F 29 °F (1991)
Degree Days  
Heating Degree Days 6    
Growing Degree Days 8 (Base 50)    
Moisture  
Dew Point 48 °F    
Average Humidity 69    
Maximum Humidity 89    
Minimum Humidity 42    
Precipitation  
Precipitation 0.00 in - - ()
Sea Level Pressure  
Sea Level Pressure 30.25 in    
Wind  
Wind Speed 3 mph (SE)    
Max Wind Speed 12 mph    
Max Gust Speed 18 mph    
Visibility 10 miles    
Events Hail    
Averages and records for this station are not official NWS values.
T = Trace of Precipitation, MM = Missing Value Source: NWS Daily Summary

Daily Weather History Graph

Daily Weather History Graph

Search for Another Location

Airport or City:

Trip Planner

Search our weather history database for the weather conditions in past years. The results will help you decide how hot, cold, wet, or windy it might be!

Date:

Astronomy

Nov. 11, 2012 Rise Set
Actual Time 6:11 AM CST 4:48 PM CST
Civil Twilight 5:46 AM CST 5:14 PM CST
Nautical Twilight 5:16 AM CST 5:43 PM CST
Astronomical Twilight 4:47 AM CST 6:12 PM CST
Moon 3:32 AM CST (11/11) 3:06 PM CST (11/11)
Length of Visible Light 11h 28m
Length of Day
10h 37m
Waning Crescent, 7% of the Moon is Illuminated
Nov 11
Waning Crescent
Nov 13
New
Nov 20
First Quarter
Nov 28
Full
Dec 6
Last Quarter

Hourly Weather History & Observations

Time (CST) Temp. Windchill Dew Point Humidity Pressure Visibility Wind Dir Wind Speed Gust Speed Precip Events Conditions
12:56 AM 44.1 °F - 39.9 °F 85% 30.27 in 10.0 mi Calm Calm - N/A   Clear
1:56 AM 42.1 °F - 37.9 °F 85% 30.26 in 10.0 mi Calm Calm - N/A   Clear
2:56 AM 44.1 °F - 39.9 °F 85% 30.24 in 10.0 mi Calm Calm - N/A   Clear
3:56 AM 45.0 °F - 39.9 °F 82% 30.25 in 10.0 mi Calm Calm - N/A   Clear
4:56 AM 48.0 °F - 41.0 °F 77% 30.28 in 10.0 mi SE 3.5 mph - N/A   Clear
5:56 AM 46.0 °F 43.9 °F 39.9 °F 79% 30.28 in 10.0 mi ESE 4.6 mph - N/A   Clear
6:56 AM 48.0 °F - 41.0 °F 77% 30.29 in 10.0 mi ESE 4.6 mph - N/A   Clear
8:56 AM 62.1 °F - 51.1 °F 67% 30.33 in 10.0 mi ESE 8.1 mph - N/A   Scattered Clouds
9:56 AM 69.1 °F - 51.1 °F 53% 30.32 in 10.0 mi SE 8.1 mph 18.4 mph N/A   Clear
10:56 AM 71.1 °F - 51.1 °F 49% 30.30 in 10.0 mi SSE 10.4 mph 17.3 mph N/A   Clear
11:56 AM 73.9 °F - 52.0 °F 46% 30.26 in 10.0 mi ESE 11.5 mph 16.1 mph N/A   Clear
12:56 PM 73.9 °F - 51.1 °F 45% 30.24 in 10.0 mi SE 10.4 mph 18.4 mph N/A   Clear
1:56 PM 75.9 °F - 51.1 °F 42% 30.23 in 10.0 mi ESE 11.5 mph 18.4 mph N/A   Overcast
2:56 PM 73.0 °F - 51.1 °F 46% 30.22 in 10.0 mi SSE 10.4 mph 17.3 mph N/A   Clear
3:56 PM 72.0 °F - 51.1 °F 48% 30.22 in 10.0 mi SE 10.4 mph 17.3 mph N/A   Partly Cloudy
4:56 PM 68.0 °F - 51.1 °F 55% 30.21 in 10.0 mi SE 4.6 mph - N/A   Clear
5:56 PM 66.0 °F - 52.0 °F 60% 30.23 in 10.0 mi Calm Calm - N/A   Clear
6:45 PM - - - N/A% - - North - - N/A Hail Hail
6:56 PM 60.1 °F - 52.0 °F 75% 30.23 in 10.0 mi Calm Calm - N/A   Clear
7:56 PM 57.9 °F - 52.0 °F 81% 30.25 in 10.0 mi Calm Calm - N/A   Clear
8:56 PM 55.0 °F - 51.1 °F 86% 30.24 in 10.0 mi Calm Calm - N/A   Clear
9:56 PM 55.0 °F - 50.0 °F 83% 30.24 in 10.0 mi Calm Calm - N/A   Clear
10:56 PM 53.1 °F - 50.0 °F 89% 30.23 in 10.0 mi Calm Calm - N/A   Clear
11:56 PM 57.0 °F - 51.1 °F 81% 30.20 in 10.0 mi SE 3.5 mph - N/A   Mostly Cloudy